Torna al catalogo

USA 342

AttivoMilitareGEO
NORAD 55263·PAYLOAD·🇺🇸 United States

Lanciato Jan 15, 2023 da Cape Canaveral Space Force Station

Loading…

TLE

AggiornatoSource: Space-Track

Epoca: Sep 14, 2026, 12:12 UTC

1 55263U 23008A   26257.50848862  .00000000  00000-0  00000+0 0  9996
2 55263   0.0102 178.0234 0000195  64.9066 317.4306  1.00271306 13410

Traccia USA 342 in tempo reale con AllMySat

Download on the App Store